EW5545 Weather Reports


Display with metric or nautical units.
time (UTC)temp
F
wind
direction
speed
MPH
gust
MPH
rain 1hr
in
rain 24hr
in
rain mn
in
humidity
%
barometer
mb
20260503190007 57 235 1.0 2.0 0.00 0.00 0.00 64 1016.7
20260503185005 58 237 2.0 2.0 0.00 0.00 0.00 62 1016.7
20260503184505 58 236 1.0 2.0 0.00 0.00 0.00 61 1016.7
20260503184007 59 231 2.0 2.0 0.00 0.00 0.00 59 1016.6
20260503183506 60 230 0.0 1.0 0.00 0.00 0.00 57 1016.6
20260503182507 60 230 1.0 3.0 0.00 0.00 0.00 56 1016.6
20260503182007 62 246 1.0 3.0 0.00 0.00 0.00 51 1016.6
20260503181510 63 263 0.0 0.0 0.00 0.00 0.00 48 1016.5
20260503180510 64 334 0.0 0.0 0.00 0.00 0.00 46 1016.5
20260503175505 64 333 0.0 0.0 0.00 0.00 0.00 44 1016.5
20260503175007 65 14 0.0 1.0 0.00 0.00 0.00 44 1016.5
20260503174005 65 243 0.0 1.0 0.00 0.00 0.00 43 1016.6
20260503173005 66 31 0.0 1.0 0.00 0.00 0.00 41 1016.5
20260503172008 67 31 1.0 3.0 0.00 0.00 0.00 39 1016.5
20260503171505 68 38 0.0 1.0 0.00 0.00 0.00 38 1016.5
20260503171007 68 38 0.0 2.0 0.00 0.00 0.00 38 1016.5
20260503131007 70 47 7.0 16.0 0.00 0.00 0.00 40 1017.2
20260503130506 70 51 9.0 14.0 0.00 0.00 0.00 38 1017.2
20260503110507 71 46 10.0 17.0 0.00 0.00 0.00 32 1017.5
20260503090510 69 39 7.0 14.0 0.00 0.00 0.00 34 1017.9
20260503081505 68 24 3.0 12.0 0.00 0.00 0.00 38 1017.8
20260503081011 67 43 4.0 12.0 0.00 0.00 0.00 38 1017.8
20260503080505 67 39 4.0 14.0 0.00 0.00 0.00 39 1017.8
20260503072007 65 46 5.0 8.0 0.00 0.00 0.00 42 1017.9
20260503071506 65 41 5.0 9.0 0.00 0.00 0.00 42 1017.9
20260503071006 65 38 5.0 12.0 0.00 0.00 0.00 42 1017.8
20260503070506 65 27 5.0 10.0 0.00 0.00 0.00 42 1017.8
20260503055007 61 333 3.0 6.0 0.00 0.00 0.00 45 1017.8
20260503054006 60 35 1.0 3.0 0.00 0.00 0.00 48 1017.7
20260503053507 59 290 2.0 3.0 0.00 0.00 0.00 49 1017.7
20260503053005 59 269 1.0 3.0 0.00 0.00 0.00 51 1017.6
20260503052505 58 252 1.0 3.0 0.00 0.00 0.00 51 1017.6
20260503052007 57 258 0.0 2.0 0.00 0.00 0.00 53 1017.6
20260503051507 57 261 1.0 3.0 0.00 0.00 0.00 53 1017.6
20260503051008 56 268 0.0 3.0 0.00 0.00 0.00 53 1017.6
20260503050505 56 262 1.0 3.0 0.00 0.00 0.00 54 1017.6
20260503050007 55 257 0.0 3.0 0.00 0.00 0.00 55 1017.5
20260503045506 54 244 0.0 3.0 0.00 0.00 0.00 56 1017.5
20260503045007 54 237 1.0 3.0 0.00 0.00 0.00 56 1017.5
20260503044505 54 246 1.0 3.0 0.00 0.00 0.00 57 1017.5
20260503044007 53 249 2.0 5.0 0.00 0.00 0.00 57 1017.5
20260503043507 53 231 1.0 3.0 0.00 0.00 0.00 58 1017.6
20260503043005 52 235 1.0 3.0 0.00 0.00 0.00 58 1017.6
20260503042510 52 230 0.0 2.0 0.00 0.00 0.00 58 1017.5
20260503042007 52 245 0.0 3.0 0.00 0.00 0.00 58 1017.5
20260503040507 52 256 0.0 3.0 0.00 0.00 0.00 58 1017.5
20260503035507 52 248 1.0 3.0 0.00 0.00 0.00 58 1017.5
20260503035006 52 246 0.0 5.0 0.00 0.00 0.00 58 1017.5
20260503034505 52 244 1.0 3.0 0.00 0.00 0.00 58 1017.5
20260503034007 52 241 1.0 3.0 0.00 0.00 0.00 58 1017.5
20260503033506 52 263 0.0 2.0 0.00 0.00 0.00 58 1017.5
20260503032507 52 252 0.0 3.0 0.00 0.00 0.00 58 1017.5
20260503032006 52 241 1.0 3.0 0.00 0.00 0.00 58 1017.5
20260503031008 52 239 0.0 1.0 0.00 0.00 0.00 58 1017.5
20260503030508 53 243 0.0 2.0 0.00 0.00 0.00 58 1017.5
20260503030007 53 281 1.0 3.0 0.00 0.00 0.00 57 1017.5
20260503023507 53 248 0.0 1.0 0.00 0.00 0.00 56 1017.6
20260503023006 53 254 0.0 2.0 0.00 0.00 0.00 56 1017.6
20260503022506 54 254 1.0 5.0 0.00 0.00 0.00 56 1017.7
20260503022006 53 250 2.0 5.0 0.00 0.00 0.00 56 1017.6
20260503021011 54 253 2.0 3.0 0.00 0.00 0.00 55 1017.7
20260503020507 54 247 1.0 3.0 0.00 0.00 0.00 55 1017.7
20260503020015 54 244 1.0 3.0 0.00 0.00 0.00 55 1017.7
20260503015506 54 249 2.0 5.0 0.00 0.00 0.00 55 1017.7
20260503015007 54 240 1.0 3.0 0.00 0.00 0.00 55 1017.8
20260503014007 54 224 1.0 5.0 0.00 0.00 0.00 54 1017.9
20260503013505 54 264 3.0 7.0 0.00 0.00 0.00 54 1017.9
20260503013007 54 254 2.0 6.0 0.00 0.00 0.00 54 1017.9
20260503012505 54 262 1.0 5.0 0.00 0.00 0.00 54 1018.0
20260503012007 54 263 2.0 5.0 0.00 0.00 0.00 54 1018.1
20260503011505 54 265 2.0 6.0 0.00 0.00 0.00 55 1018.1
20260503011005 54 24 1.0 5.0 0.00 0.00 0.00 55 1018.1
20260503010506 54 252 1.0 5.0 0.00 0.00 0.00 55 1018.2
20260503010005 54 254 1.0 5.0 0.00 0.00 0.00 54 1018.2
20260503005506 54 232 1.0 3.0 0.00 0.00 0.00 54 1018.3
20260503005007 54 260 1.0 3.0 0.00 0.00 0.00 54 1018.4
20260503004506 54 240 1.0 3.0 0.00 0.00 0.00 54 1018.4
20260503003506 54 245 1.0 3.0 0.00 0.00 0.00 54 1018.5
20260503003008 54 245 2.0 3.0 0.00 0.00 0.00 53 1018.5
20260503002505 54 253 2.0 3.0 0.00 0.00 0.00 53 1018.5
20260503002005 54 247 3.0 5.0 0.00 0.00 0.00 53 1018.5
20260503001507 54 263 3.0 8.0 0.00 0.00 0.00 52 1018.6
20260503001011 54 248 3.0 6.0 0.00 0.00 0.00 52 1018.6
20260503000507 54 262 2.0 3.0 0.00 0.00 0.00 51 1018.7
20260503000006 54 249 1.0 3.0 0.00 0.00 0.00 51 1018.8
20260502235507 54 271 1.0 3.0 0.00 0.00 0.00 51 1018.8
20260502234007 54 229 1.0 3.0 0.00 0.00 0.00 52 1019.0
20260502233506 54 303 1.0 5.0 0.00 0.00 0.00 52 1019.1
20260502232505 54 266 0.0 3.0 0.00 0.00 0.00 52 1019.2
20260502232006 54 260 1.0 3.0 0.00 0.00 0.00 52 1019.3
20260502231506 54 256 1.0 3.0 0.00 0.00 0.00 52 1019.3
20260502231007 53 254 1.0 3.0 0.00 0.00 0.00 53 1019.4
20260502230507 53 238 0.0 3.0 0.00 0.00 0.00 54 1019.4
20260502230007 53 260 1.0 5.0 0.00 0.00 0.00 54 1019.5
20260502225505 54 293 1.0 3.0 0.00 0.00 0.00 54 1019.5
20260502225006 54 244 2.0 5.0 0.00 0.00 0.00 55 1019.6
20260502224505 54 250 0.0 3.0 0.00 0.00 0.00 56 1019.6
20260502224007 54 253 3.0 6.0 0.00 0.00 0.00 56 1019.7
20260502222508 54 250 1.0 3.0 0.00 0.00 0.00 60 1019.8
20260502222007 54 247 2.0 6.0 0.00 0.00 0.00 61 1019.8
20260502221007 53 258 1.0 3.0 0.00 0.00 0.00 63 1019.9
20260502220506 53 251 2.0 3.0 0.00 0.00 0.00 63 1019.9
20260502220011 53 256 2.0 5.0 0.00 0.00 0.00 64 1019.9
20260502215506 53 254 2.0 3.0 0.00 0.00 0.00 64 1019.9
20260502215005 52 251 2.0 5.0 0.00 0.00 0.00 65 1020.0
20260502214506 52 258 3.0 5.0 0.00 0.00 0.00 66 1020.0
20260502214007 52 255 3.0 5.0 0.00 0.00 0.00 66 1020.0
20260502213517 51 249 2.0 3.0 0.00 0.00 0.00 65 1020.1
20260502212506 50 268 1.0 3.0 0.00 0.00 0.00 65 1020.1
20260502212010 50 263 1.0 2.0 0.00 0.00 0.00 66 1020.2
20260502211505 50 247 1.0 2.0 0.00 0.00 0.00 67 1020.2
20260502211007 50 249 1.0 2.0 0.00 0.00 0.00 67 1020.2
20260502210507 50 247 1.0 2.0 0.00 0.00 0.00 67 1020.2
20260502210005 50 247 1.0 2.0 0.00 0.00 0.00 67 1020.3
20260502205507 50 247 0.0 1.0 0.00 0.00 0.00 66 1020.4
20260502204507 51 247 1.0 2.0 0.00 0.00 0.00 63 1020.3
20260502203508 52 254 0.0 2.0 0.00 0.00 0.00 62 1020.4
20260502203007 52 251 1.0 2.0 0.00 0.00 0.00 62 1020.4
20260502202506 51 230 1.0 2.0 0.00 0.00 0.00 62 1020.4
20260502202007 52 260 0.0 1.0 0.00 0.00 0.00 61 1020.4
20260502201507 52 260 1.0 2.0 0.00 0.00 0.00 60 1020.4
20260502200006 52 255 1.0 3.0 0.00 0.00 0.00 58 1020.4
20260502195505 52 255 2.0 3.0 0.00 0.00 0.00 57 1020.4
20260502195006 53 256 1.0 2.0 0.00 0.00 0.00 57 1020.4
20260502194507 52 249 0.0 1.0 0.00 0.00 0.00 57 1020.3
20260502194006 52 249 0.0 2.0 0.00 0.00 0.00 57 1020.3
20260502193505 53 250 0.0 2.0 0.00 0.00 0.00 57 1020.4
20260502192505 54 263 2.0 3.0 0.00 0.00 0.00 54 1020.4
20260502192008 54 250 1.0 3.0 0.00 0.00 0.00 53 1020.4
20260502191505 54 253 1.0 3.0 0.00 0.00 0.00 53 1020.4
20260502191006 54 253 0.0 1.0 0.00 0.00 0.00 53 1020.2